{"data":{"norad_id":66901,"epoch":"2026-09-20T05:29:12.042240Z","epoch_age_seconds":107208,"freshness":"FRESH","line1":"1 66901U 25283Z   26263.22861160  .00016112  00000+0  48671-3 0  9996","line2":"2 66901  53.1581 196.6766 0000710 309.4569  50.6370 15.34416514 45680","mean_motion":15.34416514,"eccentricity":7.1e-5,"inclination_deg":53.1581,"raan_deg":196.6766,"arg_perigee_deg":309.4569,"mean_anomaly_deg":50.637,"bstar":0.00048671,"rev_number":4568,"period_min":93.846748054486,"perigee_km":462.16846138696,"apogee_km":463.13985373133,"semimajor_km":6840.7911575591,"source":"CELESTRAK","updated_at":"2026-09-21T09:00:36.054184Z"}}